Location: Marcé
(47.5801°N, 0.3280°W)
Time: 23:58:05
(UTC+01:00)

Vanguard 2 - Pass Details

Date: 04 December 2021
Orbit: 553 x 2936 km, 32.9° (Epoch: 20 January)

Event Time Altitude Azimuth Distance (km) Brightness Sun altitude
Rises 19:14:02 0° 255° (WSW) 4,015 12.8 -20.0°
Reaches altitude 10° 19:17:43 10° 236° (SW) 3,436 11.8 -20.6°
Maximum altitude 19:22:59 17° 199° (SSW) 3,436 11.1 -21.4°
Drops below altitude 10° 19:29:45 10° 165° (SSE) 4,587 11.4 -22.6°
Sets 19:36:02 0° 149° (SSE) 6,069 11.9 -23.6°
